This is the latest recevied weather packets stored in our database for station/object WX1NWA. If no packets are shown the sender has not sent any weather packets the latest 10 day(s).
| Time | Temp. | Humidity | Pressure | Rain* | Wind** | Luminosity | Snow |
|---|---|---|---|---|---|---|---|
| 1777763774 | 15.56° C | 45% | 1021.3 hPa | 0 mm | - | 35 W/m² | - |
| 1777763472 | 15.56° C | 46% | 1021.1 hPa | 0 mm | - | 36 W/m² | - |
| 1777763170 | 15.56° C | 45% | 1021 hPa | 0 mm | - | 36 W/m² | - |
| 1777762868 | 15.56° C | 45% | 1021.1 hPa | 0 mm | - | 43 W/m² | - |
| 1777762563 | 15.56° C | 44% | 1021.2 hPa | 0 mm | - | 48 W/m² | - |
| 1777762261 | 16.11° C | 44% | 1021 hPa | 0 mm | - | 46 W/m² | - |
| 1777761956 | 16.11° C | 44% | 1021.1 hPa | 0 mm | - | 85 W/m² | - |
| 1777761654 | 16.11° C | 44% | 1021.1 hPa | 0 mm | - | 43 W/m² | - |
| 1777761351 | 16.11° C | 45% | 1020.8 hPa | 0 mm | - | 44 W/m² | - |
| 1777761050 | 16.67° C | 44% | 1021.3 hPa | 0 mm | - | 42 W/m² | - |
| 1777760747 | 16.11° C | 44% | 1021 hPa | 0 mm | - | 46 W/m² | - |
| 1777760443 | 16.67° C | 44% | 1021.1 hPa | 0 mm | - | 47 W/m² | - |
| 1777760139 | 16.11° C | 45% | 1021.1 hPa | 0 mm | - | 53 W/m² | - |
| 1777759836 | 16.11° C | 43% | 1021 hPa | 0 mm | - | 52 W/m² | - |
| 1777759532 | 16.67° C | 44% | 1021 hPa | 0 mm | - | 64 W/m² | - |
| 1777759229 | 16.67° C | 42% | 1021.2 hPa | 0 mm | - | 110 W/m² | - |
| 1777758926 | 16.67° C | 42% | 1021.1 hPa | 0 mm | - | 266 W/m² | - |
| 1777758623 | 16.11° C | 42% | 1021.1 hPa | 0 mm | - | 400 W/m² | - |
| 1777758320 | 15.56° C | 43% | 1021.2 hPa | 0 mm | - | 207 W/m² | - |
| 1777758017 | 16.11° C | 42% | 1021.4 hPa | 0 mm | - | 65 W/m² | - |
| 1777757714 | 17.22° C | 39% | 1021.3 hPa | 0 mm | - | 203 W/m² | - |
| 1777757412 | 17.78° C | 40% | 1021.1 hPa | 0 mm | - | 452 W/m² | - |
| 1777757110 | 17.78° C | 40% | 1021 hPa | 0 mm | - | 481 W/m² | - |
| 1777756808 | 17.78° C | 39% | 1021.2 hPa | 0 mm | - | 484 W/m² | - |
| 1777756503 | 18.33° C | 42% | 1021.3 hPa | 0 mm | - | 493 W/m² | - |
* Rain latest hour (hover to see other rain measurements)
** Current wind speed in m/s (hover to see current wind gust speed)